Precipitable_Water
0.92 0.91 0.84 0.72 0.67 0.64 0.61 0.58 0.58 0.54 0.52 0.48 0.44 0.43 0.44 0.46 0.48 0.44 0.41 0.41 0.41 0.41 0.43 0.45 0.47 0.47 0.46 0.44 0.44 0.44 0.42 0.41 0.41 0.44 0.46 0.46 0.45 0.44 0.43 0.42 0.42 0.41
0.94 0.94 0.91 0.78 0.70 0.70 0.66 0.64 0.61 0.60 0.57 0.54 0.50 0.48 0.49 0.51 0.52 0.50 0.46 0.44 0.44 0.43 0.46 0.47 0.48 0.46 0.45 0.43 0.41 0.39 0.39 0.40 0.38 0.40 0.38 0.41 0.42 0.42 0.40 0.40 0.39 0.39
0.94 0.94 0.93 0.84 0.73 0.70 0.69 0.69 0.68 0.67 0.65 0.64 0.60 0.55 0.54 0.58 0.57 0.56 0.54 0.52 0.49 0.48 0.50 0.52 0.52 0.51 0.49 0.47 0.44 0.43 0.42 0.42 0.41 0.42 0.39 0.40 0.42 0.41 0.40 0.38 0.36 0.34
0.92 0.94 0.95 0.92 0.82 0.75 0.75 0.74 0.72 0.72 0.74 0.71 0.69 0.67 0.64 0.64 0.64 0.62 0.61 0.59 0.55 0.53 0.54 0.55 0.54 0.55 0.54 0.53 0.51 0.49 0.50 0.49 0.49 0.48 0.45 0.45 0.46 0.45 0.43 0.42 0.39 0.37
0.90 0.93 0.96 0.96 0.90 0.84 0.81 0.80 0.77 0.77 0.76 0.76 0.76 0.74 0.71 0.69 0.68 0.67 0.65 0.63 0.61 0.59 0.58 0.58 0.57 0.57 0.58 0.56 0.57 0.54 0.53 0.51 0.52 0.51 0.48 0.47 0.47 0.47 0.50 0.48 0.45 0.42
0.87 0.90 0.93 0.95 0.95 0.89 0.87 0.84 0.83 0.81 0.81 0.82 0.80 0.82 0.79 0.79 0.77 0.73 0.70 0.67 0.67 0.65 0.62 0.62 0.62 0.62 0.60 0.59 0.60 0.59 0.57 0.56 0.54 0.53 0.51 0.49 0.49 0.51 0.51 0.51 0.50 0.48
0.84 0.86 0.92 0.99 0.98 0.92 0.89 0.91 0.90 0.89 0.87 0.86 0.87 0.86 0.87 0.86 0.86 0.86 0.85 0.81 0.77 0.74 0.70 0.67 0.65 0.66 0.66 0.64 0.63 0.62 0.62 0.60 0.60 0.57 0.55 0.54 0.53 0.52 0.53 0.53 0.52 0.51
0.87 0.90 0.89 0.96 0.97 0.94 0.91 0.95 0.96 0.95 0.95 0.93 0.89 0.90 0.91 0.90 0.91 0.91 0.91 0.89 0.88 0.87 0.86 0.84 0.80 0.77 0.76 0.72 0.66 0.66 0.66 0.66 0.63 0.61 0.59 0.59 0.57 0.53 0.55 0.56 0.58 0.57
0.90 0.88 0.88 0.95 0.94 0.90 0.91 0.96 0.98 0.98 0.99 0.96 0.94 0.94 0.95 0.94 0.93 0.93 0.92 0.91 0.89 0.89 0.89 0.89 0.88 0.87 0.86 0.82 0.78 0.77 0.76 0.75 0.74 0.70 0.67 0.64 0.61 0.59 0.58 0.59 0.58 0.58
0.91 0.90 0.89 0.94 0.91 0.93 0.95 1.00 1.02 1.04 1.05 1.02 0.99 0.99 0.96 0.98 0.98 0.95 0.94 0.92 0.91 0.91 0.91 0.92 0.92 0.91 0.90 0.88 0.85 0.82 0.81 0.81 0.82 0.80 0.78 0.77 0.74 0.71 0.70 0.68 0.66 0.67
0.91 0.97 0.99 0.99 0.99 1.00 0.99 1.02 1.05 1.04 1.06 1.05 1.01 0.99 0.99 0.99 1.00 1.00 0.98 0.96 0.93 0.92 0.93 0.94 0.95 0.95 0.93 0.93 0.91 0.88 0.85 0.84 0.85 0.84 0.83 0.83 0.82 0.80 0.79 0.77 0.75 0.72
0.89 0.98 1.02 1.03 0.99 0.99 0.97 0.95 0.93 0.98 1.07 1.09 1.07 1.02 1.01 1.01 1.00 1.00 0.99 0.97 0.97 0.96 0.96 0.97 0.97 0.96 0.95 0.95 0.94 0.92 0.89 0.87 0.86 0.86 0.85 0.84 0.84 0.82 0.82 0.83 0.81 0.80
0.92 0.92 0.89 0.92 0.94 0.97 0.98 0.98 1.00 1.01 1.01 1.04 1.03 1.02 1.02 1.02 1.02 1.01 1.01 0.99 0.97 0.96 0.95 0.96 0.96 0.96 0.96 0.95 0.95 0.95 0.93 0.90 0.88 0.87 0.86 0.86 0.86 0.85 0.83 0.82 0.82 0.81
0.95 0.94 0.92 0.97 0.97 0.96 0.94 0.94 0.96 0.96 0.97 0.98 0.98 0.97 0.98 0.99 0.98 0.97 0.96 0.96 0.95 0.95 0.95 0.94 0.92 0.91 0.93 0.95 0.95 0.95 0.95 0.93 0.92 0.89 0.87 0.86 0.87 0.88 0.87 0.85 0.83 0.82
0.89 0.95 0.95 0.93 0.94 0.95 0.93 0.92 0.91 0.92 0.93 0.93 0.93 0.94 0.94 0.94 0.95 0.94 0.92 0.91 0.92 0.93 0.93 0.93 0.88 0.85 0.87 0.90 0.92 0.95 0.95 0.93 0.93 0.91 0.87 0.85 0.85 0.86 0.87 0.87 0.86 0.85
0.82 0.82 0.85 0.87 0.88 0.87 0.87 0.89 0.88 0.89 0.90 0.90 0.90 0.90 0.90 0.91 0.91 0.92 0.91 0.90 0.89 0.90 0.90 0.89 0.88 0.91 0.92 0.92 0.91 0.88 0.87 0.86 0.88 0.90 0.91 0.89 0.88 0.86 0.85 0.84 0.84 0.84
0.52 0.52 0.56 0.55 0.58 0.61 0.62 0.64 0.66 0.69 0.72 0.73 0.75 0.77 0.77 0.77 0.75 0.71 0.71 0.76 0.80 0.83 0.86 0.88 0.91 0.93 0.94 0.94 0.93 0.91 0.90 0.87 0.85 0.84 0.85 0.85 0.85 0.86 0.87 0.86 0.85 0.85
0.48 0.48 0.48 0.49 0.50 0.53 0.54 0.56 0.57 0.58 0.59 0.60 0.62 0.61 0.60 0.62 0.61 0.62 0.65 0.67 0.69 0.71 0.71 0.73 0.76 0.80 0.82 0.84 0.86 0.87 0.87 0.86 0.85 0.83 0.83 0.83 0.83 0.82 0.82 0.82 0.81 0.80
0.50 0.49 0.47 0.48 0.50 0.49 0.47 0.46 0.46 0.47 0.47 0.48 0.49 0.52 0.55 0.54 0.56 0.58 0.60 0.63 0.66 0.66 0.66 0.68 0.68 0.71 0.72 0.73 0.73 0.75 0.79 0.82 0.82 0.82 0.79 0.77 0.77 0.77 0.77 0.77 0.76 0.75
0.46 0.45 0.44 0.45 0.46 0.46 0.44 0.43 0.43 0.44 0.45 0.45 0.45 0.45 0.44 0.45 0.47 0.49 0.51 0.52 0.55 0.58 0.61 0.63 0.62 0.63 0.63 0.63 0.66 0.70 0.75 0.78 0.79 0.79 0.78 0.78 0.77 0.77 0.77 0.76 0.76 0.75
0.44 0.44 0.42 0.43 0.43 0.42 0.40 0.39 0.37 0.36 0.36 0.37 0.37 0.38 0.38 0.39 0.40 0.41 0.44 0.47 0.49 0.51 0.52 0.55 0.58 0.59 0.57 0.58 0.62 0.67 0.70 0.71 0.72 0.72 0.73 0.74 0.75 0.76 0.75 0.75 0.73 0.74
0.42 0.42 0.41 0.42 0.42 0.42 0.39 0.37 0.35 0.35 0.34 0.35 0.34 0.33 0.34 0.34 0.35 0.36 0.36 0.38 0.43 0.47 0.48 0.47 0.52 0.56 0.57 0.58 0.60 0.63 0.66 0.65 0.63 0.62 0.62 0.64 0.65 0.67 0.67 0.69 0.72 0.71
0.44 0.44 0.45 0.46 0.46 0.44 0.41 0.39 0.38 0.37 0.37 0.39 0.37 0.36 0.33 0.32 0.32 0.33 0.36 0.37 0.37 0.38 0.38 0.40 0.43 0.48 0.52 0.55 0.56 0.60 0.60 0.59 0.57 0.56 0.55 0.56 0.57 0.60 0.62 0.65 0.67 0.71
0.48 0.47 0.47 0.49 0.48 0.45 0.44 0.43 0.42 0.43 0.42 0.43 0.41 0.39 0.36 0.35 0.35 0.34 0.36 0.38 0.38 0.39 0.43 0.42 0.43 0.46 0.48 0.50 0.54 0.57 0.58 0.57 0.56 0.54 0.54 0.55 0.56 0.58 0.60 0.64 0.68 0.69
0.51 0.50 0.49 0.48 0.46 0.44 0.44 0.44 0.44 0.44 0.45 0.45 0.44 0.43 0.42 0.41 0.40 0.38 0.39 0.40 0.41 0.41 0.43 0.44 0.44 0.46 0.49 0.53 0.55 0.55 0.56 0.56 0.55 0.54 0.52 0.53 0.53 0.55 0.57 0.59 0.62 0.64
0.54 0.53 0.52 0.50 0.49 0.48 0.48 0.48 0.49 0.48 0.47 0.46 0.46 0.46 0.45 0.45 0.43 0.41 0.38 0.40 0.42 0.42 0.44 0.47 0.49 0.52 0.54 0.55 0.56 0.56 0.56 0.55 0.54 0.52 0.50 0.52 0.53 0.53 0.53 0.56 0.58 0.59
Wind_Speed
15 14 13 12 11 9 8 7 6 5 4 4 4 3 3 2 2 2 2 2 2 2 2 2 2 2 1 1 2 2 2 2 3 3 4 4 4 5 5 5 6 6
16 15 14 13 12 11 10 9 7 6 5 5 4 3 3 3 2 2 1 1 2 2 2 2 2 2 2 1 1 1 2 2 2 2 3 3 3 3 4 4 5 5
16 16 15 14 13 12 11 10 9 8 7 6 5 4 4 3 3 2 2 2 2 2 2 2 2 2 2 2 2 2 2 2 2 2 2 3 3 3 3 3 4 4
17 17 16 15 14 13 12 11 11 10 9 8 7 6 5 5 4 4 4 4 3 3 4 4 3 3 3 3 3 3 3 3 3 3 2 3 3 3 3 3 3 3
18 18 18 17 15 14 13 13 12 12 11 10 9 8 7 7 7 6 6 6 5 5 5 5 5 5 5 4 4 4 4 4 4 4 4 4 4 4 4 4 4 4
18 18 19 18 17 16 15 14 14 13 12 12 11 10 9 9 9 8 8 8 8 7 7 7 7 7 6 6 6 6 5 5 5 5 5 5 5 5 5 5 5 5
18 18 18 19 18 17 17 16 14 14 14 13 12 12 11 10 10 10 10 9 9 9 9 9 8 8 8 8 7 7 7 7 7 7 7 7 7 7 7 7 7 7
18 18 18 19 20 19 18 17 16 16 15 14 14 13 12 12 11 11 11 11 11 11 11 10 10 10 9 9 9 9 9 9 9 9 9 9 9 9 8 8 8 8
18 19 19 19 20 20 20 19 18 17 17 16 15 14 14 14 14 13 13 13 13 13 12 12 12 12 11 11 11 11 11 11 11 11 11 11 11 10 10 10 10 10
18 19 20 20 19 19 20 19 19 18 18 17 16 16 16 16 16 16 16 16 15 15 15 15 15 14 14 13 13 13 13 12 12 12 12 12 12 12 12 11 11 11
17 18 18 18 18 19 19 19 19 19 18 18 17 17 17 17 17 18 18 18 18 18 18 18 18 17 17 16 16 15 15 14 14 14 13 13 13 14 13 13 13 13
17 17 17 17 17 19 19 19 20 20 20 19 18 17 18 18 19 19 19 18 19 19 19 19 20 20 20 19 19 18 18 18 17 17 16 15 15 15 15 15 14 14
16 17 18 19 19 20 21 21 22 22 22 21 20 19 19 20 20 20 19 19 19 19 19 19 19 20 21 21 21 21 21 21 20 20 19 18 18 17 17 17 16 16
16 16 18 19 20 21 22 22 23 23 23 23 22 22 22 22 22 21 21 21 21 21 21 20 20 20 21 22 22 23 23 23 22 22 22 21 20 20 20 19 19 19
17 17 18 19 20 21 22 22 23 23 23 23 23 23 23 23 23 23 23 23 23 23 23 23 22 22 22 22 22 23 24 24 24 24 24 24 23 23 22 22 22 22
18 18 18 18 19 20 20 21 21 21 21 22 22 22 22 23 23 23 23 23 24 24 24 24 24 23 23 23 23 23 24 24 25 25 25 26 26 26 25 24 24 24
19 19 18 19 19 19 20 20 20 20 21 21 21 22 22 22 22 23 23 23 23 24 24 24 24 24 24 25 25 25 25 25 25 26 26 26 27 27 27 27 27 26
20 20 19 19 19 20 20 20 21 21 21 22 22 22 23 23 23 24 24 24 24 25 25 25 25 26 26 26 26 27 27 27 27 28 28 29 29 29 29 29 29 29
21 21 21 21 20 20 21 21 21 22 22 22 23 23 23 24 24 24 25 25 25 26 26 27 27 27 28 28 28 28 29 29 29 29 30 31 31 32 32 32 31 31
22 22 22 22 22 22 22 22 22 23 23 23 24 24 24 25 25 26 26 26 26 27 27 28 28 29 29 30 30 30 30 30 31 31 31 32 32 33 33 33 33 32
24 24 24 24 23 23 23 23 23 24 24 24 25 25 25 26 26 27 27 27 28 28 28 28 29 29 30 30 30 31 31 31 31 32 32 32 32 33 33 33 33 33
25 25 25 25 24 24 24 24 24 24 25 25 25 26 26 26 27 27 28 28 28 29 29 29 29 29 29 29 30 30 30 31 31 31 31 31 31 31 32 32 32 32
26 26 26 26 25 25 25 26 26 26 26 26 26 27 27 27 28 28 28 29 29 29 29 30 30 30 29 29 30 30 30 30 30 30 30 30 30 30 31 31 31 32
27 26 26 26 26 27 27 27 27 28 28 28 28 28 29 29 29 29 29 29 29 29 29 30 30 30 29 29 30 30 29 29 29 29 29 29 29 29 30 30 30 31
27 27 27 28 28 29 29 29 29 29 30 30 30 30 30 30 29 29 29 30 30 30 30 30 30 30 30 30 30 29 29 29 29 29 28 28 28 29 29 30 30 30
29 29 30 30 30 31 31 31 31 32 32 32 31 31 31 31 30 30 30 30 30 30 30 30 30 30 30 30 30 30 30 30 30 29 29 28 29 29 30 30 31 31
Wind_Direction
239 241 241 240 241 243 243 244 246 250 251 246 240 237 235 234 225 217 219 215 215 216 208 194 194 204 211 218 226 229 231 230 230 234 233 233 235 234 234 236 237 236
238 238 235 232 235 240 241 239 240 243 243 241 236 232 232 234 228 221 221 216 217 219 213 204 198 198 206 214 224 232 237 238 235 234 231 232 238 238 237 239 242 241
233 232 229 230 234 238 238 237 240 241 240 238 235 234 234 235 238 240 243 242 239 233 227 228 224 219 224 225 225 232 237 242 243 238 229 226 232 237 238 241 245 246
230 230 230 231 234 237 237 236 239 242 242 239 238 240 241 243 247 249 253 256 256 253 247 246 246 242 241 240 239 240 240 241 244 244 238 231 233 235 236 240 245 248
232 234 234 233 235 237 237 235 236 239 241 242 242 243 245 248 250 252 256 258 258 261 259 257 258 256 254 254 252 251 249 247 248 249 246 242 242 240 238 240 243 246
237 238 236 234 234 235 236 235 236 237 239 242 244 246 248 249 252 255 256 257 258 260 260 260 261 260 259 260 261 261 258 254 253 251 249 248 249 249 245 244 246 249
237 238 236 234 231 230 232 233 236 239 239 241 243 245 247 248 251 254 255 258 259 259 259 259 260 260 259 260 261 262 262 261 259 255 253 251 251 251 251 249 250 253
238 237 236 235 231 229 232 234 237 239 238 239 240 242 245 248 251 253 254 258 260 260 259 258 260 260 260 259 259 259 260 261 260 258 257 256 254 253 253 255 255 255
240 237 237 238 234 232 235 237 238 238 238 239 240 242 246 249 252 255 258 260 261 261 261 259 259 260 261 261 261 260 259 260 259 259 258 258 258 257 256 258 258 257
240 241 239 237 235 234 235 237 237 238 239 241 242 244 247 250 254 258 262 264 264 263 262 260 260 261 263 262 261 261 260 259 260 260 260 260 260 260 259 259 260 260
244 244 238 234 233 233 235 238 239 240 242 243 243 246 249 253 256 260 262 263 263 263 262 260 260 261 262 262 262 262 260 259 259 258 259 260 260 260 260 259 260 261
244 241 238 238 239 238 239 242 244 245 246 246 248 250 254 257 258 260 261 261 261 262 262 262 261 260 260 261 261 261 261 260 259 257 257 258 259 259 259 260 261 262
245 241 242 245 246 246 247 249 250 251 251 252 254 256 258 259 260 260 261 261 262 263 263 263 263 262 261 261 260 261 262 262 260 258 257 258 258 258 258 259 260 262
253 250 249 250 250 251 253 255 255 256 257 258 260 260 260 261 261 262 262 262 263 264 263 263 264 265 264 261 260 259 260 261 260 259 259 260 260 259 258 258 259 261
257 257 257 257 256 256 257 258 258 259 260 260 261 262 262 263 263 264 265 265 264 264 263 264 265 266 264 262 260 259 259 259 259 259 260 260 260 260 260 260 259 261
260 260 260 259 258 258 258 259 259 259 260 260 261 262 263 264 265 265 266 267 266 265 265 265 265 265 263 262 261 260 260 261 261 261 260 260 260 260 260 261 260 261
260 260 258 257 258 258 258 258 259 260 260 261 262 263 264 265 266 266 267 268 268 268 267 266 266 266 264 263 262 262 262 263 263 263 262 261 260 259 260 260 261 261
258 258 258 258 258 258 259 259 259 260 261 262 263 264 265 266 266 267 267 268 268 268 268 267 267 267 266 265 265 264 265 265 265 265 264 263 262 260 260 261 261 262
257 257 258 258 258 259 260 260 260 261 262 262 263 264 265 266 266 267 267 268 267 267 267 267 268 268 267 266 266 266 266 267 267 266 265 265 263 262 261 261 261 261
256 257 257 258 259 260 261 261 261 262 262 263 264 265 266 266 267 267 268 268 268 267 268 268 268 268 267 267 267 267 267 267 268 267 267 266 265 264 262 261 260 260
258 258 258 259 259 261 262 263 263 264 265 266 267 267 268 268 268 269 269 269 269 268 269 269 270 270 269 268 268 268 267 268 269 269 269 267 266 265 264 262 261 260
259 259 259 259 260 261 262 264 265 265 266 267 269 269 270 270 271 271 271 271 270 269 269 269 271 272 271 270 269 269 269 270 271 270 270 269 267 266 264 262 261 260
259 259 259 259 260 261 262 264 265 266 267 268 270 271 271 272 272 272 271 272 272 271 270 270 271 272 271 270 270 269 270 270 271 271 270 269 267 265 263 261 260 260
259 259 259 259 259 261 263 264 266 267 268 269 270 271 272 273 273 273 272 272 272 272 271 270 270 271 271 269 269 269 270 271 271 270 269 268 266 265 263 261 261 261
260 259 259 259 260 262 263 265 266 267 269 270 271 272 272 273 274 274 273 272 272 272 271 271 271 271 270 269 268 268 270 271 271 270 269 268 266 265 264 263 263 263
263 261 261 261 262 264 265 266 267 268 269 270 271 271 271 272 273 274 274 273 272 272 271 271 271 271 270 269 268 269 269 270 270 270 269 268 267 266 266 265 265 265